Year,Month,Day,Hour,Minute,Value (Times are PST for temperature in C)
2016,02,08,00,00,8.30
2016,02,08,00,01,8.30
2016,02,08,00,02,8.30
2016,02,08,00,03,8.30
2016,02,08,00,04,8.30
2016,02,08,00,05,8.20
2016,02,08,00,06,8.20
2016,02,08,00,07,8.20
2016,02,08,00,08,8.20
2016,02,08,00,09,8.20
2016,02,08,00,10,8.20
2016,02,08,00,11,8.20
2016,02,08,00,12,8.20
2016,02,08,00,13,8.20
2016,02,08,00,14,8.20
2016,02,08,00,15,8.20
2016,02,08,00,16,8.20
2016,02,08,00,17,8.20
2016,02,08,00,18,8.20
2016,02,08,00,19,8.20
2016,02,08,00,20,8.20
2016,02,08,00,21,8.20
2016,02,08,00,22,8.20
2016,02,08,00,23,8.20
2016,02,08,00,24,8.20
2016,02,08,00,25,8.20
2016,02,08,00,26,8.20
2016,02,08,00,27,8.20
2016,02,08,00,28,8.20
2016,02,08,00,29,8.20
2016,02,08,00,30,8.20
2016,02,08,00,31,8.20
2016,02,08,00,32,8.20
2016,02,08,00,33,8.20
2016,02,08,00,34,8.20
2016,02,08,00,35,8.30
2016,02,08,00,36,8.30
2016,02,08,00,37,8.30
2016,02,08,00,38,8.30
2016,02,08,00,39,8.30
2016,02,08,00,40,8.30
2016,02,08,00,41,8.30
2016,02,08,00,42,8.30
2016,02,08,00,43,8.30
2016,02,08,00,44,8.30
2016,02,08,00,45,8.20
2016,02,08,00,46,8.20
2016,02,08,00,47,8.20
2016,02,08,00,48,8.20
2016,02,08,00,49,8.20
2016,02,08,00,50,8.20
2016,02,08,00,51,8.20
2016,02,08,00,52,8.20
2016,02,08,00,53,8.20
2016,02,08,00,54,8.20
2016,02,08,00,55,8.20
2016,02,08,00,56,8.20
2016,02,08,00,57,8.20
2016,02,08,00,58,8.20
2016,02,08,00,59,8.20
2016,02,08,01,00,8.20
2016,02,08,01,01,8.20
2016,02,08,01,02,8.20
2016,02,08,01,03,8.20
2016,02,08,01,04,8.20
2016,02,08,01,05,8.20
2016,02,08,01,06,8.20
2016,02,08,01,07,8.20
2016,02,08,01,08,8.20
2016,02,08,01,09,8.20
2016,02,08,01,10,8.20
2016,02,08,01,11,8.20
2016,02,08,01,12,8.20
2016,02,08,01,13,8.20
2016,02,08,01,14,8.20
2016,02,08,01,15,8.20
2016,02,08,01,16,8.20
2016,02,08,01,17,8.20
2016,02,08,01,18,8.20
2016,02,08,01,19,8.20
2016,02,08,01,20,8.20
2016,02,08,01,21,8.20
2016,02,08,01,22,8.20
2016,02,08,01,23,8.20
2016,02,08,01,24,8.20
2016,02,08,01,25,8.20
2016,02,08,01,26,8.20
2016,02,08,01,27,8.20
2016,02,08,01,28,8.20
2016,02,08,01,29,8.20
2016,02,08,01,30,8.20
2016,02,08,01,31,8.20
2016,02,08,01,32,8.20
2016,02,08,01,33,8.20
2016,02,08,01,34,8.20
2016,02,08,01,35,8.20
2016,02,08,01,36,8.20
2016,02,08,01,37,8.20
2016,02,08,01,38,8.20
2016,02,08,01,39,8.20
2016,02,08,01,40,8.20
2016,02,08,01,41,8.20
2016,02,08,01,42,8.20
2016,02,08,01,43,8.20
2016,02,08,01,44,8.20
2016,02,08,01,45,8.20
2016,02,08,01,46,8.20
2016,02,08,01,47,8.20
2016,02,08,01,48,8.20
2016,02,08,01,49,8.20
2016,02,08,01,50,8.20
2016,02,08,01,51,8.20
2016,02,08,01,52,8.20
2016,02,08,01,53,8.20
2016,02,08,01,54,8.20
2016,02,08,01,55,8.20
2016,02,08,01,56,8.20
2016,02,08,01,57,8.20
2016,02,08,01,58,8.20
2016,02,08,01,59,8.20
2016,02,08,02,00,8.20
2016,02,08,02,01,8.20
2016,02,08,02,02,8.20
2016,02,08,02,03,8.20
2016,02,08,02,04,8.20
2016,02,08,02,05,8.20
2016,02,08,02,06,8.20
2016,02,08,02,07,8.20
2016,02,08,02,08,8.20
2016,02,08,02,09,8.20
2016,02,08,02,10,8.20
2016,02,08,02,11,8.20
2016,02,08,02,12,8.20
2016,02,08,02,13,8.20
2016,02,08,02,14,8.20
2016,02,08,02,15,8.20
2016,02,08,02,16,8.20
2016,02,08,02,17,8.10
2016,02,08,02,18,8.10
2016,02,08,02,19,8.10
2016,02,08,02,20,8.10
2016,02,08,02,21,8.10
2016,02,08,02,22,8.00
2016,02,08,02,23,8.00
2016,02,08,02,24,8.00
2016,02,08,02,25,7.90
2016,02,08,02,26,7.90
2016,02,08,02,27,7.90
2016,02,08,02,28,7.90
2016,02,08,02,29,7.90
2016,02,08,02,30,7.90
2016,02,08,02,31,7.90
2016,02,08,02,32,7.90
2016,02,08,02,33,7.80
2016,02,08,02,34,7.80
2016,02,08,02,35,7.80
2016,02,08,02,36,7.80
2016,02,08,02,37,7.80
2016,02,08,02,38,7.80
2016,02,08,02,39,7.80
2016,02,08,02,40,7.80
2016,02,08,02,41,7.80
2016,02,08,02,42,7.80
2016,02,08,02,43,7.70
2016,02,08,02,44,7.70
2016,02,08,02,45,7.70
2016,02,08,02,46,7.70
2016,02,08,02,47,7.70
2016,02,08,02,48,7.70
2016,02,08,02,49,7.60
2016,02,08,02,50,7.70
2016,02,08,02,51,7.70
2016,02,08,02,52,7.60
2016,02,08,02,53,7.60
2016,02,08,02,54,7.60
2016,02,08,02,55,7.60
2016,02,08,02,56,7.60
2016,02,08,02,57,7.60
2016,02,08,02,58,7.60
2016,02,08,02,59,7.60
2016,02,08,03,00,7.60
2016,02,08,03,01,7.60
2016,02,08,03,02,7.60
2016,02,08,03,03,7.60
2016,02,08,03,04,7.60
2016,02,08,03,05,7.60
2016,02,08,03,06,7.60
2016,02,08,03,07,7.60
2016,02,08,03,08,7.50
2016,02,08,03,09,7.50
2016,02,08,03,10,7.50
2016,02,08,03,11,7.40
2016,02,08,03,12,7.40
2016,02,08,03,13,7.40
2016,02,08,03,14,7.40
2016,02,08,03,15,7.40
2016,02,08,03,16,7.40
2016,02,08,03,17,7.30
2016,02,08,03,18,7.30
2016,02,08,03,19,7.30
2016,02,08,03,20,7.30
2016,02,08,03,21,7.30
2016,02,08,03,22,7.30
2016,02,08,03,23,7.20
2016,02,08,03,24,7.20
2016,02,08,03,25,7.20
2016,02,08,03,26,7.20
2016,02,08,03,27,7.20
2016,02,08,03,28,7.20
2016,02,08,03,29,7.20
2016,02,08,03,30,7.20
2016,02,08,03,31,7.20
2016,02,08,03,32,7.20
2016,02,08,03,33,7.20
2016,02,08,03,34,7.20
2016,02,08,03,35,7.20
2016,02,08,03,36,7.20
2016,02,08,03,37,7.20
2016,02,08,03,38,7.20
2016,02,08,03,39,7.20
2016,02,08,03,40,7.20
2016,02,08,03,41,7.20
2016,02,08,03,42,7.20
2016,02,08,03,43,7.20
2016,02,08,03,44,7.10
2016,02,08,03,45,7.10
2016,02,08,03,46,7.10
2016,02,08,03,47,7.10
2016,02,08,03,48,7.10
2016,02,08,03,49,7.00
2016,02,08,03,50,7.00
2016,02,08,03,51,7.00
2016,02,08,03,52,6.90
2016,02,08,03,53,7.00
2016,02,08,03,54,7.00
2016,02,08,03,55,7.00
2016,02,08,03,56,7.00
2016,02,08,03,57,6.90
2016,02,08,03,58,6.90
2016,02,08,03,59,6.90
2016,02,08,04,00,6.90
2016,02,08,04,01,6.90
2016,02,08,04,02,6.90
2016,02,08,04,03,6.90
2016,02,08,04,04,6.80
2016,02,08,04,05,6.80
2016,02,08,04,06,6.80
2016,02,08,04,07,6.80
2016,02,08,04,08,6.80
2016,02,08,04,09,6.70
2016,02,08,04,10,6.70
2016,02,08,04,11,6.70
2016,02,08,04,12,6.70
2016,02,08,04,13,6.70
2016,02,08,04,14,6.70
2016,02,08,04,15,6.70
2016,02,08,04,16,6.70
2016,02,08,04,17,6.70
2016,02,08,04,18,6.60
2016,02,08,04,19,6.60
2016,02,08,04,20,6.60
2016,02,08,04,21,6.60
2016,02,08,04,22,6.60
2016,02,08,04,23,6.60
2016,02,08,04,24,6.60
2016,02,08,04,25,6.50
2016,02,08,04,26,6.50
2016,02,08,04,27,6.50
2016,02,08,04,28,6.50
2016,02,08,04,29,6.50
2016,02,08,04,30,6.50
2016,02,08,04,31,6.50
2016,02,08,04,32,6.50
2016,02,08,04,33,6.50
2016,02,08,04,34,6.40
2016,02,08,04,35,6.40
2016,02,08,04,36,6.40
2016,02,08,04,37,6.40
2016,02,08,04,38,6.40
2016,02,08,04,39,6.40
2016,02,08,04,40,6.30
2016,02,08,04,41,6.30
2016,02,08,04,42,6.30
2016,02,08,04,43,6.30
2016,02,08,04,44,6.30
2016,02,08,04,45,6.30
2016,02,08,04,46,6.20
2016,02,08,04,47,6.20
2016,02,08,04,48,6.20
2016,02,08,04,49,6.20
2016,02,08,04,50,6.10
2016,02,08,04,51,6.10
2016,02,08,04,52,6.10
2016,02,08,04,53,6.10
2016,02,08,04,54,6.10
2016,02,08,04,55,6.00
2016,02,08,04,56,6.00
2016,02,08,04,57,6.00
2016,02,08,04,58,6.00
2016,02,08,04,59,5.90
2016,02,08,05,00,5.90
2016,02,08,05,01,5.90
2016,02,08,05,02,5.90
2016,02,08,05,03,5.80
2016,02,08,05,04,5.80
2016,02,08,05,05,5.80
2016,02,08,05,06,5.80
2016,02,08,05,07,5.70
2016,02,08,05,08,5.70
2016,02,08,05,09,5.70
2016,02,08,05,10,5.70
2016,02,08,05,11,5.70
2016,02,08,05,12,5.70
2016,02,08,05,13,5.70
2016,02,08,05,14,5.70
2016,02,08,05,15,5.60
2016,02,08,05,16,5.60
2016,02,08,05,17,5.60
2016,02,08,05,18,5.60
2016,02,08,05,19,5.60
2016,02,08,05,20,5.60
2016,02,08,05,21,5.60
2016,02,08,05,22,5.60
2016,02,08,05,23,5.60
2016,02,08,05,24,5.60
2016,02,08,05,25,5.50
2016,02,08,05,26,5.50
2016,02,08,05,27,5.50
2016,02,08,05,28,5.50
2016,02,08,05,29,5.40
2016,02,08,05,30,5.40
2016,02,08,05,31,5.40
2016,02,08,05,32,5.40
2016,02,08,05,33,5.40
2016,02,08,05,34,5.30
2016,02,08,05,35,5.30
2016,02,08,05,36,5.30
2016,02,08,05,37,5.30
2016,02,08,05,38,5.30
2016,02,08,05,39,5.20
2016,02,08,05,40,5.20
2016,02,08,05,41,5.20
2016,02,08,05,42,5.20
2016,02,08,05,43,5.20
2016,02,08,05,44,5.20
2016,02,08,05,45,5.20
2016,02,08,05,46,5.10
2016,02,08,05,47,5.10
2016,02,08,05,48,5.10
2016,02,08,05,49,5.10
2016,02,08,05,50,5.10
2016,02,08,05,51,5.10
2016,02,08,05,52,5.00
2016,02,08,05,53,5.00
2016,02,08,05,54,5.00
2016,02,08,05,55,4.90
2016,02,08,05,56,4.90
2016,02,08,05,57,4.90
2016,02,08,05,58,4.90
2016,02,08,05,59,4.90
2016,02,08,06,00,4.90
2016,02,08,06,01,4.80
2016,02,08,06,02,4.80
2016,02,08,06,03,4.80
2016,02,08,06,04,4.80
2016,02,08,06,05,4.80
2016,02,08,06,06,4.80
2016,02,08,06,07,4.80
2016,02,08,06,08,4.80
2016,02,08,06,09,4.80
2016,02,08,06,10,4.80
2016,02,08,06,11,4.80
2016,02,08,06,12,4.80
2016,02,08,06,13,4.80
2016,02,08,06,14,4.80
2016,02,08,06,15,4.70
2016,02,08,06,16,4.70
2016,02,08,06,17,4.70
2016,02,08,06,18,4.70
2016,02,08,06,19,4.70
2016,02,08,06,20,4.70
2016,02,08,06,21,4.70
2016,02,08,06,22,4.70
2016,02,08,06,23,4.70
2016,02,08,06,24,4.70
2016,02,08,06,25,4.70
2016,02,08,06,26,4.70
2016,02,08,06,27,4.70
2016,02,08,06,28,4.70
2016,02,08,06,29,4.70
2016,02,08,06,30,4.80
2016,02,08,06,31,4.80
2016,02,08,06,32,4.80
2016,02,08,06,33,4.80
2016,02,08,06,34,4.80
2016,02,08,06,35,4.80
2016,02,08,06,36,4.80
2016,02,08,06,37,4.80
2016,02,08,06,38,4.80
2016,02,08,06,39,4.80
2016,02,08,06,40,4.80
2016,02,08,06,41,4.80
2016,02,08,06,42,4.80
2016,02,08,06,43,4.80
2016,02,08,06,44,4.80
2016,02,08,06,45,4.80
2016,02,08,06,46,4.80
2016,02,08,06,47,4.70
2016,02,08,06,48,4.70
2016,02,08,06,49,4.70
2016,02,08,06,50,4.70
2016,02,08,06,51,4.70
2016,02,08,06,52,4.70
2016,02,08,06,53,4.70
2016,02,08,06,54,4.60
2016,02,08,06,55,4.60
2016,02,08,06,56,4.60
2016,02,08,06,57,4.60
2016,02,08,06,58,4.50
2016,02,08,06,59,4.50
2016,02,08,07,00,4.50
2016,02,08,07,01,4.50
2016,02,08,07,02,4.50
2016,02,08,07,03,4.40
2016,02,08,07,04,4.40
2016,02,08,07,05,4.40
2016,02,08,07,06,4.40
2016,02,08,07,07,4.50
2016,02,08,07,08,4.50
2016,02,08,07,09,4.50
2016,02,08,07,10,4.50
2016,02,08,07,11,4.50
2016,02,08,07,12,4.50
2016,02,08,07,13,4.60
2016,02,08,07,14,4.60
2016,02,08,07,15,4.60
2016,02,08,07,16,4.60
2016,02,08,07,17,4.60
2016,02,08,07,18,4.60
2016,02,08,07,19,4.60
2016,02,08,07,20,4.60
2016,02,08,07,21,4.60
2016,02,08,07,22,4.60
2016,02,08,07,23,4.60
2016,02,08,07,24,4.60
2016,02,08,07,25,4.60
2016,02,08,07,26,4.60
2016,02,08,07,27,4.60
2016,02,08,07,28,4.60
2016,02,08,07,29,4.60
2016,02,08,07,30,4.60
2016,02,08,07,31,4.60
2016,02,08,07,32,4.60
2016,02,08,07,33,4.70
2016,02,08,07,34,4.70
2016,02,08,07,35,4.70
2016,02,08,07,36,4.60
2016,02,08,07,37,4.60
2016,02,08,07,38,4.60
2016,02,08,07,39,4.60
2016,02,08,07,40,4.60
2016,02,08,07,41,4.70
2016,02,08,07,42,4.70
2016,02,08,07,43,4.70
2016,02,08,07,44,4.70
2016,02,08,07,45,4.70
2016,02,08,07,46,4.70
2016,02,08,07,47,4.80
2016,02,08,07,48,4.80
2016,02,08,07,49,4.80
2016,02,08,07,50,4.80
2016,02,08,07,51,4.90
2016,02,08,07,52,4.90
2016,02,08,07,53,4.90
2016,02,08,07,54,4.90
2016,02,08,07,55,4.90
2016,02,08,07,56,4.90
2016,02,08,07,57,4.90
2016,02,08,07,58,4.90
2016,02,08,07,59,4.90
2016,02,08,08,00,5.00
2016,02,08,08,01,5.00
2016,02,08,08,02,5.00
2016,02,08,08,03,5.00
2016,02,08,08,04,4.90
2016,02,08,08,05,4.90
2016,02,08,08,06,5.00
2016,02,08,08,07,5.00
2016,02,08,08,08,5.00
2016,02,08,08,09,5.10
2016,02,08,08,10,5.10
2016,02,08,08,11,5.10
2016,02,08,08,12,5.20
2016,02,08,08,13,5.20
2016,02,08,08,14,5.30
2016,02,08,08,15,5.30
2016,02,08,08,16,5.40
2016,02,08,08,17,5.40
2016,02,08,08,18,5.40
2016,02,08,08,19,5.50
2016,02,08,08,20,5.50
2016,02,08,08,21,5.50
2016,02,08,08,22,5.60
2016,02,08,08,23,5.60
2016,02,08,08,24,5.60
2016,02,08,08,25,5.60
2016,02,08,08,26,5.60
2016,02,08,08,27,5.70
2016,02,08,08,28,5.70
2016,02,08,08,29,5.70
2016,02,08,08,30,5.70
2016,02,08,08,31,5.80
2016,02,08,08,32,5.80
2016,02,08,08,33,5.80
2016,02,08,08,34,5.80
2016,02,08,08,35,5.80
2016,02,08,08,36,5.90
2016,02,08,08,37,5.90
2016,02,08,08,38,5.90
2016,02,08,08,39,5.90
2016,02,08,08,40,5.90
2016,02,08,08,41,6.00
2016,02,08,08,42,6.00
2016,02,08,08,43,6.00
2016,02,08,08,44,6.10
2016,02,08,08,45,6.10
2016,02,08,08,46,6.10
2016,02,08,08,47,6.20
2016,02,08,08,48,6.20
2016,02,08,08,49,6.30
2016,02,08,08,50,6.30
2016,02,08,08,51,6.30
2016,02,08,08,52,6.40
2016,02,08,08,53,6.50
2016,02,08,08,54,6.50
2016,02,08,08,55,6.50
2016,02,08,08,56,6.60
2016,02,08,08,57,6.60
2016,02,08,08,58,6.70
2016,02,08,08,59,6.70
2016,02,08,09,00,6.80
2016,02,08,09,01,6.90
2016,02,08,09,02,6.90
2016,02,08,09,03,7.00
2016,02,08,09,04,7.10
2016,02,08,09,05,7.20
2016,02,08,09,06,7.20
2016,02,08,09,07,7.30
2016,02,08,09,08,7.40
2016,02,08,09,09,7.40
2016,02,08,09,10,7.50
2016,02,08,09,11,7.50
2016,02,08,09,12,7.60
2016,02,08,09,13,7.60
2016,02,08,09,14,7.70
2016,02,08,09,15,7.70
2016,02,08,09,16,7.80
2016,02,08,09,17,7.80
2016,02,08,09,18,7.90
2016,02,08,09,19,7.90
2016,02,08,09,20,8.00
2016,02,08,09,21,8.00
2016,02,08,09,22,8.10
2016,02,08,09,23,8.10
2016,02,08,09,24,8.20
2016,02,08,09,25,8.20
2016,02,08,09,26,8.30
2016,02,08,09,27,8.30
2016,02,08,09,28,8.30
2016,02,08,09,29,8.40
2016,02,08,09,30,8.40
2016,02,08,09,31,8.50
2016,02,08,09,32,8.60
2016,02,08,09,33,8.70
2016,02,08,09,34,8.70
2016,02,08,09,35,8.80
2016,02,08,09,36,8.80
2016,02,08,09,37,8.90
2016,02,08,09,38,9.00
2016,02,08,09,39,9.00
2016,02,08,09,40,9.00
2016,02,08,09,41,9.10
2016,02,08,09,42,9.20
2016,02,08,09,43,9.30
2016,02,08,09,44,9.40
2016,02,08,09,45,9.40
2016,02,08,09,46,9.50
2016,02,08,09,47,9.60
2016,02,08,09,48,9.70
2016,02,08,09,49,9.80
2016,02,08,09,50,9.90
2016,02,08,09,51,9.90
2016,02,08,09,52,10.00
2016,02,08,09,53,10.10
2016,02,08,09,54,10.20
2016,02,08,09,55,10.30
2016,02,08,09,56,10.30
2016,02,08,09,57,10.40
2016,02,08,09,58,10.50
2016,02,08,09,59,10.50
2016,02,08,10,00,10.60
2016,02,08,10,01,10.70
2016,02,08,10,02,10.80
2016,02,08,10,03,10.80
2016,02,08,10,04,10.90
2016,02,08,10,05,10.90
2016,02,08,10,06,11.00
2016,02,08,10,07,11.10
2016,02,08,10,08,11.10
2016,02,08,10,09,11.20
2016,02,08,10,10,11.20
2016,02,08,10,11,11.30
2016,02,08,10,12,11.30
2016,02,08,10,13,11.40
2016,02,08,10,14,11.50
2016,02,08,10,15,11.60
2016,02,08,10,16,11.60
2016,02,08,10,17,11.70
2016,02,08,10,18,11.80
2016,02,08,10,19,11.90
2016,02,08,10,20,12.00
2016,02,08,10,21,12.10
2016,02,08,10,22,12.20
2016,02,08,10,23,12.30
2016,02,08,10,24,12.30
2016,02,08,10,25,12.40
2016,02,08,10,26,12.40
2016,02,08,10,27,12.40
2016,02,08,10,28,12.40
2016,02,08,10,29,12.40
2016,02,08,10,30,12.50
2016,02,08,10,31,12.50
2016,02,08,10,32,12.50
2016,02,08,10,33,12.60
2016,02,08,10,34,12.60
2016,02,08,10,35,12.60
2016,02,08,10,36,12.60
2016,02,08,10,37,12.70
2016,02,08,10,38,12.70
2016,02,08,10,39,12.80
2016,02,08,10,40,12.80
2016,02,08,10,41,12.80
2016,02,08,10,42,12.80
2016,02,08,10,43,12.80
2016,02,08,10,44,12.70
2016,02,08,10,45,12.70
2016,02,08,10,46,12.70
2016,02,08,10,47,12.70
2016,02,08,10,48,12.70
2016,02,08,10,49,12.70
2016,02,08,10,50,12.80
2016,02,08,10,51,12.80
2016,02,08,10,52,12.80
2016,02,08,10,53,12.80
2016,02,08,10,54,12.80
2016,02,08,10,55,12.80
2016,02,08,10,56,12.70
2016,02,08,10,57,12.60
2016,02,08,10,58,12.50
2016,02,08,10,59,12.40
2016,02,08,11,00,12.40
2016,02,08,11,01,12.30
2016,02,08,11,02,12.30
2016,02,08,11,03,12.30
2016,02,08,11,04,12.30
2016,02,08,11,05,12.30
2016,02,08,11,06,12.30
2016,02,08,11,07,12.30
2016,02,08,11,08,12.40
2016,02,08,11,09,12.50
2016,02,08,11,10,12.50
2016,02,08,11,11,12.50
2016,02,08,11,12,12.50
2016,02,08,11,13,12.60
2016,02,08,11,14,12.60
2016,02,08,11,15,12.60
2016,02,08,11,16,12.60
2016,02,08,11,17,12.50
2016,02,08,11,18,12.50
2016,02,08,11,19,12.50
2016,02,08,11,20,12.40
2016,02,08,11,21,12.50
2016,02,08,11,22,12.50
2016,02,08,11,23,12.60
2016,02,08,11,24,12.60
2016,02,08,11,25,12.70
2016,02,08,11,26,12.80
2016,02,08,11,27,12.90
2016,02,08,11,28,13.00
2016,02,08,11,29,13.10
2016,02,08,11,30,13.20
2016,02,08,11,31,13.20
2016,02,08,11,32,13.20
2016,02,08,11,33,13.30
2016,02,08,11,34,13.30
2016,02,08,11,35,13.30
2016,02,08,11,36,13.40
2016,02,08,11,37,13.40
2016,02,08,11,38,13.40
2016,02,08,11,39,13.30
2016,02,08,11,40,13.30
2016,02,08,11,41,13.30
2016,02,08,11,42,13.40
2016,02,08,11,43,13.40
2016,02,08,11,44,13.40
2016,02,08,11,45,13.40
2016,02,08,11,46,13.30
2016,02,08,11,47,13.30
2016,02,08,11,48,13.20
2016,02,08,11,49,13.20
2016,02,08,11,50,13.20
2016,02,08,11,51,13.30
2016,02,08,11,52,13.30
2016,02,08,11,53,13.30
2016,02,08,11,54,13.40
2016,02,08,11,55,13.40
2016,02,08,11,56,13.50
2016,02,08,11,57,13.50
2016,02,08,11,58,13.60
2016,02,08,11,59,13.60
2016,02,08,12,00,13.70
2016,02,08,12,01,13.70
2016,02,08,12,02,13.70
2016,02,08,12,03,13.70
2016,02,08,12,04,13.70
2016,02,08,12,05,13.60
2016,02,08,12,06,13.50
2016,02,08,12,07,13.40
2016,02,08,12,08,13.50
2016,02,08,12,09,13.50
2016,02,08,12,10,13.60
2016,02,08,12,11,13.60
2016,02,08,12,12,13.60
2016,02,08,12,13,13.70
2016,02,08,12,14,13.70
2016,02,08,12,15,13.80
2016,02,08,12,16,13.80
2016,02,08,12,17,13.80
2016,02,08,12,18,13.80
2016,02,08,12,19,13.80
2016,02,08,12,20,13.70
2016,02,08,12,21,13.60
2016,02,08,12,22,13.60
2016,02,08,12,23,13.60
2016,02,08,12,24,13.70
2016,02,08,12,25,13.70
2016,02,08,12,26,13.80
2016,02,08,12,27,13.80
2016,02,08,12,28,13.80
2016,02,08,12,29,13.80
2016,02,08,12,30,13.90
2016,02,08,12,31,13.90
2016,02,08,12,32,13.90
2016,02,08,12,33,13.90
2016,02,08,12,34,14.00
2016,02,08,12,35,14.10
2016,02,08,12,36,14.10
2016,02,08,12,37,14.20
2016,02,08,12,38,14.30
2016,02,08,12,39,14.30
2016,02,08,12,40,14.40
2016,02,08,12,41,14.40
2016,02,08,12,42,14.50
2016,02,08,12,43,14.50
2016,02,08,12,44,14.60
2016,02,08,12,45,14.60
2016,02,08,12,46,14.50
2016,02,08,12,47,14.40
2016,02,08,12,48,14.40
2016,02,08,12,49,14.30
2016,02,08,12,50,14.30
2016,02,08,12,51,14.30
2016,02,08,12,52,14.30
2016,02,08,12,53,14.30
2016,02,08,12,54,14.40
2016,02,08,12,55,14.50
2016,02,08,12,56,14.50
2016,02,08,12,57,14.50
2016,02,08,12,58,14.50
2016,02,08,12,59,14.50
2016,02,08,13,00,14.50
2016,02,08,13,01,14.50
2016,02,08,13,02,14.50
2016,02,08,13,03,14.50
2016,02,08,13,04,14.50
2016,02,08,13,05,14.50
2016,02,08,13,06,14.60
2016,02,08,13,07,14.60
2016,02,08,13,08,14.60
2016,02,08,13,09,14.70
2016,02,08,13,10,14.60
2016,02,08,13,11,14.60
2016,02,08,13,12,14.60
2016,02,08,13,13,14.60
2016,02,08,13,14,14.60
2016,02,08,13,15,14.70
2016,02,08,13,16,14.70
2016,02,08,13,17,14.70
2016,02,08,13,18,14.70
2016,02,08,13,19,14.70
2016,02,08,13,20,14.70
2016,02,08,13,21,14.70
2016,02,08,13,22,14.80
2016,02,08,13,23,14.80
2016,02,08,13,24,14.80
2016,02,08,13,25,14.80
2016,02,08,13,26,14.80
2016,02,08,13,27,14.80
2016,02,08,13,28,14.80
2016,02,08,13,29,14.80
2016,02,08,13,30,14.90
2016,02,08,13,31,14.90
2016,02,08,13,32,14.90
2016,02,08,13,33,14.90
2016,02,08,13,34,14.90
2016,02,08,13,35,15.00
2016,02,08,13,36,15.00
2016,02,08,13,37,15.00
2016,02,08,13,38,15.00
2016,02,08,13,39,15.10
2016,02,08,13,40,15.10
2016,02,08,13,41,15.00
2016,02,08,13,42,15.00
2016,02,08,13,43,15.00
2016,02,08,13,44,15.00
2016,02,08,13,45,15.00
2016,02,08,13,46,15.00
2016,02,08,13,47,15.00
2016,02,08,13,48,15.00
2016,02,08,13,49,15.00
2016,02,08,13,50,15.00
2016,02,08,13,51,15.00
2016,02,08,13,52,15.10
2016,02,08,13,53,15.10
2016,02,08,13,54,15.10
2016,02,08,13,55,15.20
2016,02,08,13,56,15.20
2016,02,08,13,57,15.30
2016,02,08,13,58,15.40
2016,02,08,13,59,15.40
2016,02,08,14,00,15.40
2016,02,08,14,01,15.40
2016,02,08,14,02,15.40
2016,02,08,14,03,15.40
2016,02,08,14,04,15.30
2016,02,08,14,05,15.30
2016,02,08,14,06,15.30
2016,02,08,14,07,15.30
2016,02,08,14,08,15.30
2016,02,08,14,09,15.30
2016,02,08,14,10,15.20
2016,02,08,14,11,15.20
2016,02,08,14,12,15.20
2016,02,08,14,13,15.10
2016,02,08,14,14,15.10
2016,02,08,14,15,15.10
2016,02,08,14,16,15.10
2016,02,08,14,17,15.20
2016,02,08,14,18,15.20
2016,02,08,14,19,15.10
2016,02,08,14,20,15.10
2016,02,08,14,21,15.10
2016,02,08,14,22,15.20
2016,02,08,14,23,15.20
2016,02,08,14,24,15.30
2016,02,08,14,25,15.30
2016,02,08,14,26,15.30
2016,02,08,14,27,15.40
2016,02,08,14,28,15.30
2016,02,08,14,29,15.40
2016,02,08,14,30,15.40
2016,02,08,14,31,15.50
2016,02,08,14,32,15.50
2016,02,08,14,33,15.60
2016,02,08,14,34,15.60
2016,02,08,14,35,15.60
2016,02,08,14,36,15.60
2016,02,08,14,37,15.50
2016,02,08,14,38,15.40
2016,02,08,14,39,15.40
2016,02,08,14,40,15.40
2016,02,08,14,41,15.30
2016,02,08,14,42,15.40
2016,02,08,14,43,15.30
2016,02,08,14,44,15.30
2016,02,08,14,45,15.30
2016,02,08,14,46,15.20
2016,02,08,14,47,15.20
2016,02,08,14,48,15.20
2016,02,08,14,49,15.20
2016,02,08,14,50,15.20
2016,02,08,14,51,15.20
2016,02,08,14,52,15.20
2016,02,08,14,53,15.20
2016,02,08,14,54,15.20
2016,02,08,14,55,15.20
2016,02,08,14,56,15.20
2016,02,08,14,57,15.20
2016,02,08,14,58,15.20
2016,02,08,14,59,15.20
2016,02,08,15,00,15.20
2016,02,08,15,01,15.30
2016,02,08,15,02,15.30
2016,02,08,15,03,15.30
2016,02,08,15,04,15.30
2016,02,08,15,05,15.40
2016,02,08,15,06,15.40
2016,02,08,15,07,15.50
2016,02,08,15,08,15.50
2016,02,08,15,09,15.60
2016,02,08,15,10,15.60
2016,02,08,15,11,15.60
2016,02,08,15,12,15.60
2016,02,08,15,13,15.60
2016,02,08,15,14,15.70
2016,02,08,15,15,15.70
2016,02,08,15,16,15.70
2016,02,08,15,17,15.70
2016,02,08,15,18,15.70
2016,02,08,15,19,15.70
2016,02,08,15,20,15.70
2016,02,08,15,21,15.70
2016,02,08,15,22,15.70
2016,02,08,15,23,15.70
2016,02,08,15,24,15.70
2016,02,08,15,25,15.60
2016,02,08,15,26,15.50
2016,02,08,15,27,15.50
2016,02,08,15,28,15.40
2016,02,08,15,29,15.40
2016,02,08,15,30,15.40
2016,02,08,15,31,15.40
2016,02,08,15,32,15.40
2016,02,08,15,33,15.40
2016,02,08,15,34,15.40
2016,02,08,15,35,15.40
2016,02,08,15,36,15.30
2016,02,08,15,37,15.30
2016,02,08,15,38,15.20
2016,02,08,15,39,15.20
2016,02,08,15,40,15.20
2016,02,08,15,41,15.20
2016,02,08,15,42,15.20
2016,02,08,15,43,15.20
2016,02,08,15,44,15.20
2016,02,08,15,45,15.20
2016,02,08,15,46,15.20
2016,02,08,15,47,15.30
2016,02,08,15,48,15.30
2016,02,08,15,49,15.30
2016,02,08,15,50,15.30
2016,02,08,15,51,15.30
2016,02,08,15,52,15.20
2016,02,08,15,53,15.20
2016,02,08,15,54,15.20
2016,02,08,15,55,15.20
2016,02,08,15,56,15.10
2016,02,08,15,57,15.10
2016,02,08,15,58,15.10
2016,02,08,15,59,15.00
2016,02,08,16,00,15.00
2016,02,08,16,01,15.00
2016,02,08,16,02,15.00
2016,02,08,16,03,15.00
2016,02,08,16,04,15.00
2016,02,08,16,05,15.00
2016,02,08,16,06,15.00
2016,02,08,16,07,15.00
2016,02,08,16,08,14.90
2016,02,08,16,09,14.80
2016,02,08,16,10,14.70
2016,02,08,16,11,14.70
2016,02,08,16,12,14.60
2016,02,08,16,13,14.50
2016,02,08,16,14,14.50
2016,02,08,16,15,14.40
2016,02,08,16,16,14.30
2016,02,08,16,17,14.30
2016,02,08,16,18,14.30
2016,02,08,16,19,14.20
2016,02,08,16,20,14.20
2016,02,08,16,21,14.20
2016,02,08,16,22,14.10
2016,02,08,16,23,14.10
2016,02,08,16,24,14.10
2016,02,08,16,25,14.10
2016,02,08,16,26,14.00
2016,02,08,16,27,14.00
2016,02,08,16,28,13.90
2016,02,08,16,29,13.90
2016,02,08,16,30,13.80
2016,02,08,16,31,13.70
2016,02,08,16,32,13.70
2016,02,08,16,33,13.60
2016,02,08,16,34,13.60
2016,02,08,16,35,13.60
2016,02,08,16,36,13.50
2016,02,08,16,37,13.40
2016,02,08,16,38,13.40
2016,02,08,16,39,13.30
2016,02,08,16,40,13.30
2016,02,08,16,41,13.30
2016,02,08,16,42,13.20
2016,02,08,16,43,13.20
2016,02,08,16,44,13.10
2016,02,08,16,45,13.00
2016,02,08,16,46,13.00
2016,02,08,16,47,12.90
2016,02,08,16,48,12.80
2016,02,08,16,49,12.80
2016,02,08,16,50,12.70
2016,02,08,16,51,12.70
2016,02,08,16,52,12.70
2016,02,08,16,53,12.60
2016,02,08,16,54,12.60
2016,02,08,16,55,12.50
2016,02,08,16,56,12.40
2016,02,08,16,57,12.40
2016,02,08,16,58,12.40
2016,02,08,16,59,12.30
2016,02,08,17,00,12.30
2016,02,08,17,01,12.30
2016,02,08,17,02,12.20
2016,02,08,17,03,12.20
2016,02,08,17,04,12.10
2016,02,08,17,05,12.10
2016,02,08,17,06,12.10
2016,02,08,17,07,12.10
2016,02,08,17,08,12.00
2016,02,08,17,09,12.00
2016,02,08,17,10,11.90
2016,02,08,17,11,11.90
2016,02,08,17,12,11.80
2016,02,08,17,13,11.80
2016,02,08,17,14,11.80
2016,02,08,17,15,11.70
2016,02,08,17,16,11.70
2016,02,08,17,17,11.60
2016,02,08,17,18,11.60
2016,02,08,17,19,11.50
2016,02,08,17,20,11.50
2016,02,08,17,21,11.40
2016,02,08,17,22,11.40
2016,02,08,17,23,11.40
2016,02,08,17,24,11.30
2016,02,08,17,25,11.30
2016,02,08,17,26,11.20
2016,02,08,17,27,11.20
2016,02,08,17,28,11.20
2016,02,08,17,29,11.10
2016,02,08,17,30,11.10
2016,02,08,17,31,11.00
2016,02,08,17,32,11.00
2016,02,08,17,33,10.90
2016,02,08,17,34,10.90
2016,02,08,17,35,10.80
2016,02,08,17,36,10.80
2016,02,08,17,37,10.80
2016,02,08,17,38,10.70
2016,02,08,17,39,10.70
2016,02,08,17,40,10.60
2016,02,08,17,41,10.60
2016,02,08,17,42,10.50
2016,02,08,17,43,10.50
2016,02,08,17,44,10.40
2016,02,08,17,45,10.30